Wheeling, WV

5:53 PM EST on December 07, 2019 (GMT -0500)
Wheeling-Ohio County

Weather History for KHLG - October, 2019

Change the Weather History Date:

Friday, October 11, 2019

  Actual Average Record
Temperature  
Mean Temperature 64 °F 55 °F  
Max Temperature 76 °F 65 °F 85 °F (1928)
Min Temperature 52 °F 45 °F 26 °F (1925)
Degree Days  
Heating Degree Days 1 11  
Month to date heating degree days 47 99  
Since 1 July heating degree days 48 200  
Cooling Degree Days 0 0  
Month to date cooling degree days 40 10  
Year to date cooling degree days 986 688  
Growing Degree Days 14 (Base 50)    
Moisture  
Dew Point 52 °F    
Average Humidity 67    
Maximum Humidity 86    
Minimum Humidity 48    
Precipitation  
Precipitation 0.00 in 0.09 in 1.00 in (1904)
Month to date precipitation 1.60 0.93  
Year to date precipitation 29.58 30.70  
Sea Level Pressure  
Sea Level Pressure 30.08 in    
Wind  
Wind Speed 7 mph (ESE)    
Max Wind Speed 10 mph    
Max Gust Speed 14 mph    
Visibility 10 miles    
Events      
T = Trace of Precipitation, MM = Missing Value Source: NWS Daily Summary

Daily Weather History Graph

Daily Weather History Graph

Search for Another Location

Airport or City:

Astronomy

Oct. 11, 2019 Rise Set
Actual Time 7:28 AM EDT 6:49 PM EDT
Civil Twilight 7:01 AM EDT 7:16 PM EDT
Nautical Twilight 6:30 AM EDT 7:47 PM EDT
Astronomical Twilight 5:58 AM EDT 8:19 PM EDT
Moon 6:18 PM EDT (10/11) 5:07 AM EDT (10/11)
Length of Visible Light 12h 14m
Length of Day
11h 20m
Waxing Gibbous, 96% of the Moon is Illuminated
Oct 11
Waxing Gibbous
Oct 13
Full
Oct 21
Last Quarter
Oct 27
New
Nov 4
First Quarter

Hourly Weather History & Observations

Time (EDT) Temp. Dew Point Humidity Pressure Visibility Wind Dir Wind Speed Gust Speed Precip Events Conditions
12:53 AM 57.0 °F 46.0 °F 67% 30.16 in 10.0 mi East 6.9 mph - N/A   Clear
1:53 AM 55.9 °F 46.9 °F 72% 30.15 in 10.0 mi East 8.1 mph - N/A   Clear
2:53 AM 55.9 °F 48.0 °F 75% 30.14 in 10.0 mi East 8.1 mph - N/A   Clear
3:53 AM 55.9 °F 48.9 °F 77% 30.14 in 10.0 mi East 5.8 mph - N/A   Clear
4:53 AM 54.0 °F 48.9 °F 83% 30.13 in 10.0 mi East 6.9 mph - N/A   Clear
5:53 AM 54.0 °F 48.9 °F 83% 30.14 in 10.0 mi East 5.8 mph - N/A   Clear
6:53 AM 53.1 °F 48.9 °F 86% 30.14 in 10.0 mi East 6.9 mph - N/A   Clear
7:53 AM 53.1 °F 48.9 °F 86% 30.15 in 10.0 mi East 8.1 mph - N/A   Clear
8:53 AM 57.9 °F 51.1 °F 78% 30.16 in 10.0 mi ESE 6.9 mph - N/A   Clear
9:53 AM 63.0 °F 52.0 °F 67% 30.15 in 10.0 mi ESE 5.8 mph - N/A   Clear
10:53 AM 68.0 °F 53.1 °F 59% 30.15 in 10.0 mi SE 5.8 mph - N/A   Clear
11:53 AM 70.0 °F 53.1 °F 55% 30.13 in 10.0 mi ESE 5.8 mph - N/A   Clear
12:53 PM 72.0 °F 54.0 °F 53% 30.11 in 10.0 mi Variable 3.5 mph - N/A   Clear
1:53 PM 73.9 °F 55.0 °F 52% 30.08 in 10.0 mi ESE 10.4 mph - N/A   Clear
2:53 PM 75.0 °F 55.0 °F 50% 30.05 in 10.0 mi North - - N/A   Clear
3:53 PM 75.0 °F 55.0 °F 50% 30.03 in 10.0 mi ESE 10.4 mph - N/A   Clear
4:53 PM 75.9 °F 55.0 °F 48% 30.02 in 10.0 mi South 5.8 mph - N/A   Clear
5:53 PM 71.1 °F 55.0 °F 57% 30.01 in 10.0 mi ESE 6.9 mph - N/A   Clear
6:53 PM 69.1 °F 55.0 °F 61% 30.01 in 10.0 mi East 8.1 mph - N/A   Mostly Cloudy
7:53 PM 66.9 °F 54.0 °F 63% 30.01 in 10.0 mi East 8.1 mph - N/A   Clear
8:53 PM 66.9 °F 54.0 °F 63% 29.99 in 10.0 mi ESE 8.1 mph - N/A   Overcast
9:53 PM 66.9 °F 53.1 °F 61% 29.99 in 10.0 mi ESE 6.9 mph - N/A   Overcast
10:53 PM 64.9 °F 52.0 °F 63% 29.97 in 10.0 mi ESE 5.8 mph - N/A   Mostly Cloudy
11:53 PM 64.9 °F 52.0 °F 63% 29.94 in 10.0 mi SE 6.9 mph - N/A   Overcast